Weather History for KNTU - March, 2013

Change the Weather History Date:

Sunday, March 31, 2013

  Actual Average Record
Temperature  
Mean Temperature 57 °F -  
Max Temperature 66 °F 61 °F 81 °F (1998)
Min Temperature 48 °F 43 °F 34 °F (2003)
Degree Days  
Heating Degree Days 8    
Growing Degree Days 7 (Base 50)    
Moisture  
Dew Point 47 °F    
Average Humidity 69    
Maximum Humidity 89    
Minimum Humidity 53    
Precipitation  
Precipitation 0.23 in - - ()
Sea Level Pressure  
Sea Level Pressure 29.94 in    
Wind  
Wind Speed 9 mph (South)    
Max Wind Speed 16 mph    
Max Gust Speed 23 mph    
Visibility 9 miles    
Events Rain    
Averages and records for this station are not official NWS values.
T = Trace of Precipitation, MM = Missing Value Source: NWS Daily Summary

Daily Weather History Graph

Daily Weather History Graph

Search for Another Location

Airport or City:

Trip Planner

Search our weather history database for the weather conditions in past years. The results will help you decide how hot, cold, wet, or windy it might be!

Date:

Astronomy

Mar. 31, 2013 Rise Set
Actual Time 6:51 AM EDT 7:25 PM EDT
Civil Twilight 6:25 AM EDT 7:51 PM EDT
Nautical Twilight 5:54 AM EDT 8:22 PM EDT
Astronomical Twilight 5:23 AM EDT 8:54 PM EDT
Moon No Moon Rise 9:43 AM EDT (3/31)
Length of Visible Light 13h 26m
Length of Day
12h 34m
Waning Gibbous, 78% of the Moon is Illuminated
Mar 31
Waning Gibbous
Apr 3
Last Quarter
Apr 10
New
Apr 18
First Quarter
Apr 25
Full

Hourly Weather History & Observations

Time (EDT) Temp. Dew Point Humidity Pressure Visibility Wind Dir Wind Speed Gust Speed Precip Events Conditions
12:56 AM 48.9 °F 37.9 °F 66% 30.16 in 10.0 mi SE 8.1 mph - N/A   Mostly Cloudy
1:56 AM 50.0 °F 39.0 °F 66% 30.15 in 10.0 mi SSE 9.2 mph - N/A   Mostly Cloudy
2:56 AM 48.9 °F 39.0 °F 69% 30.12 in 10.0 mi SSE 6.9 mph - N/A   Mostly Cloudy
3:56 AM 51.1 °F 37.9 °F 61% 30.10 in 10.0 mi SSE 9.2 mph - N/A   Overcast
4:56 AM 51.1 °F 35.1 °F 54% 30.09 in 10.0 mi SSE 8.1 mph - N/A   Overcast
5:56 AM 52.0 °F 35.1 °F 53% 30.08 in 10.0 mi SSE 8.1 mph - N/A   Overcast
6:56 AM 53.1 °F 37.0 °F 55% 30.07 in 10.0 mi SSE 10.4 mph - N/A   Mostly Cloudy
7:56 AM 53.1 °F 39.0 °F 59% 30.06 in 10.0 mi SSE 10.4 mph - N/A   Overcast
8:56 AM 55.9 °F 39.9 °F 55% 30.04 in 10.0 mi SSE 11.5 mph - N/A   Overcast
9:49 AM 57.2 °F 41.0 °F 55% 30.02 in 10.0 mi SSE 13.8 mph - 0.00 in Rain Light Rain
9:56 AM 57.0 °F 42.1 °F 57% 30.03 in 10.0 mi SSE 16.1 mph 23.0 mph 0.00 in Rain Light Rain
10:56 AM 54.0 °F 46.9 °F 77% 30.01 in 5.0 mi South 6.9 mph - 0.06 in Rain Light Rain
11:56 AM 53.1 °F 48.9 °F 86% 29.98 in 3.0 mi SSE 9.2 mph - 0.09 in Rain Light Rain
12:56 PM 55.0 °F 52.0 °F 89% 29.93 in 6.0 mi SSE 10.4 mph - 0.06 in Rain Light Rain
1:56 PM 57.0 °F 51.1 °F 81% 29.87 in 10.0 mi SSE 11.5 mph - 0.00 in Rain Light Rain
2:19 PM 60.8 °F 51.8 °F 72% 29.84 in 10.0 mi SSE 10.4 mph - 0.00 in   Overcast
2:56 PM 63.0 °F 53.1 °F 70% 29.83 in 10.0 mi South 12.7 mph 18.4 mph 0.00 in   Mostly Cloudy
3:56 PM 66.0 °F 54.0 °F 65% 29.81 in 10.0 mi SSW 8.1 mph - N/A   Mostly Cloudy
4:56 PM 64.9 °F 54.0 °F 68% 29.81 in 10.0 mi West 6.9 mph - N/A   Overcast
5:07 PM 64.4 °F 53.6 °F 68% 29.80 in 10.0 mi West 6.9 mph - 0.00 in Rain Light Rain
5:33 PM 64.4 °F 53.6 °F 68% 29.81 in 10.0 mi West 8.1 mph - 0.00 in   Overcast
5:56 PM 64.0 °F 53.1 °F 67% 29.81 in 10.0 mi WSW 6.9 mph - 0.00 in   Overcast
6:56 PM 63.0 °F 53.1 °F 70% 29.81 in 10.0 mi SW 5.8 mph - N/A   Overcast
7:56 PM 60.1 °F 53.1 °F 78% 29.81 in 10.0 mi SSW 4.6 mph - N/A   Overcast
8:56 PM 61.0 °F 53.1 °F 75% 29.81 in 10.0 mi South 4.6 mph - N/A   Overcast
9:56 PM 61.0 °F 53.1 °F 75% 29.83 in 10.0 mi SSW 5.8 mph - N/A   Overcast
10:56 PM 60.1 °F 53.1 °F 78% 29.82 in 10.0 mi SSW 5.8 mph - N/A   Overcast
11:20 PM 59.0 °F 53.6 °F 82% 29.81 in 10.0 mi SW 8.1 mph - 0.00 in Rain Light Rain
11:56 PM 59.0 °F 53.1 °F 81% 29.83 in 10.0 mi WSW 12.7 mph - 0.02 in Rain Light Rain